{"data":{"norad_id":63251,"intl_designator":"2025-052AT","name":"UVSQ-SAT NG","alt_names":[],"object_type":"PAYLOAD","status":"ACTIVE","operator":null,"country":"FR","launch_date":"2025-03-15","launch_site_code":"AFWTR","launch_vehicle":null,"mission":null,"orbit_class":"UNKNOWN","rcs_meters":null,"size_class":null,"mass_kg":null,"dimensions":null,"purposes":[],"wikipedia_slug":null,"has_3d_model":false,"image_url":null,"decayed_at":null,"tle_current":{"epoch":"2026-09-22T16:10:52.869792Z","epoch_age_seconds":121027,"freshness":"FRESH","line1":"1 63251U 25052AT  26265.67422303  .00000948  00000+0  90147-4 0  9994","line2":"2 63251  97.6703 155.1771 0001319 261.3962  98.7110 14.95757261 83207","mean_motion":14.95757261,"eccentricity":0.0001319,"inclination_deg":97.6703,"raan_deg":155.1771,"arg_perigee_deg":261.3962,"mean_anomaly_deg":98.711,"bstar":9.0147e-5,"rev_number":8320,"period_min":96.272305510139,"perigee_km":579.10549429502,"apogee_km":580.94105697573,"semimajor_km":6958.1602756354,"source":"CELESTRAK","updated_at":"2026-09-23T09:00:21.937823Z"}}}